| Date | Time | Temp. (oF) | Dew Point (oF) | Rel. Hum. (%) | Press. (in.) | Wind Dir. | Wind Speed (mph) | Hourly Rainfall (in.) |
|
|---|---|---|---|---|---|---|---|---|---|
| 1 | 03/27 | 00:00 | 44 | 44 | 100 | 29.90 | NNW | 2 | 0.00 |
| 2 | 03/26 | 23:00 | 45 | 45 | 100 | 29.89 | NNW | 4 | 0.00 |
| 3 | 03/26 | 22:00 | 45 | 45 | 100 | 29.88 | ENE | 2 | 0.00 |
| 4 | 03/26 | 21:00 | 45 | 45 | 100 | 29.88 | N | 3 | 0.01 |
| 5 | 03/26 | 20:00 | 45 | 45 | 100 | 29.87 | ENE | 0 | 0.00 |
| 6 | 03/26 | 19:00 | 45 | 44 | 99 | 29.86 | ENE | 0 | 0.09 |
| 7 | 03/26 | 18:00 | 44 | 43 | 99 | 29.85 | SSE | 2 | 0.06 |
| 8 | 03/26 | 17:00 | 44 | 43 | 98 | 29.88 | SE | 7 | 0.07 |
| 9 | 03/26 | 16:00 | 44 | 43 | 97 | 29.92 | SSW | 4 | 0.05 |
| 10 | 03/26 | 15:00 | 44 | 43 | 97 | 29.95 | SSE | 3 | 0.01 |
| 11 | 03/26 | 14:00 | 44 | 42 | 95 | 29.98 | SSE | 5 | 0.00 |
| 12 | 03/26 | 13:00 | 44 | 41 | 92 | 30.02 | SSE | 2 | 0.00 |
| 13 | 03/26 | 12:00 | 43 | 40 | 91 | 30.04 | S | 7 | 0.00 |
| 14 | 03/26 | 11:00 | 42 | 39 | 90 | 30.06 | S | 1 | 0.00 |
| 15 | 03/26 | 10:00 | 42 | 39 | 91 | 30.07 | S | 7 | 0.00 |
| 16 | 03/26 | 09:00 | 41 | 38 | 90 | 30.08 | SSW | 2 | 0.00 |
| 17 | 03/26 | 08:00 | 40 | 36 | 86 | 30.10 | SSW | 5 | 0.00 |
| 18 | 03/26 | 07:00 | 42 | 34 | 74 | 30.08 | SSW | 10 | 0.00 |
| 19 | 03/26 | 06:00 | 42 | 32 | 70 | 30.08 | SSW | 4 | 0.00 |
| 20 | 03/26 | 05:00 | 43 | 33 | 68 | 30.10 | SSW | 3 | 0.00 |
| 21 | 03/26 | 04:00 | 43 | 32 | 66 | 30.12 | SW | 8 | 0.00 |
| 22 | 03/26 | 03:00 | 43 | 31 | 63 | 30.14 | S | 4 | 0.00 |
| 23 | 03/26 | 02:00 | 44 | 30 | 60 | 30.17 | SSW | 5 | 0.00 |
| 24 | 03/26 | 01:00 | 44 | 29 | 57 | 30.18 | S | 8 | 0.00 |